Location: Newark
(3.0500°N, 36.0167°E)
Time: 18:51:38
(UTC+00:00)

Transit 2A Rocket - Pass Details

Date: 28 August 2019
Orbit: 592 x 911 km, 66.7° (Epoch: 16 September)

Event Time Altitude Azimuth Distance (km) Brightness Sun altitude
Rises 15:14:30 0° 241° (WSW) 3,532 9.3 6.1°
Reaches altitude 10° 15:19:03 10° 272° (W) 2,563 10.2 5.0°
Maximum altitude 15:20:58 12° 291° (WNW) 2,431 9.7 4.5°
Drops below altitude 10° 15:22:53 10° 310° (NW) 2,521 8.9 4.0°
Sets 15:27:17 0° 342° (NNW) 3,391 8.8 3.0°
